Location: Bucharest
(44.4268°N, 26.1025°E)
Time: 16:40:06
(UTC+03:00)

CUBESAT XI-V - Pass Details

Date: 02 July 2022
Orbit: 668 x 690 km, 98.1° (Epoch: 18 August)

Event Time Altitude Azimuth Distance (km) Brightness Sun altitude
Exits shadow 03:16:34 32° 193° (SSW) 1,149 ? -17.4°
Maximum altitude 03:18:31 59° 259° (W) 778 ? -17.3°
Drops below altitude 10° 03:23:04 10° 339° (NNW) 2,109 ? -16.9°
Sets 03:25:20 0° 344° (NNW) 3,025 ? -16.7°
